Location: Cudham
(51.3000°N, 0.0667°E)
Time: 17:42:35
(UTC+00:00)

CZ-4C R/B - Pass Details

Date: 19 May 2025
Orbit: 501 x 1482 km, 63.4° (Epoch: 13 June)

Event Time Altitude Azimuth Distance (km) Brightness Sun altitude
Rises 21:14:44 0° 312° (NW) 3,791 7.6 -10.4°
Reaches altitude 10° 21:17:25 10° 303° (WNW) 2,977 6.3 -10.7°
Maximum altitude 21:23:46 34° 243° (WSW) 1,986 4.2 -11.3°
Drops below altitude 10° 21:31:12 10° 183° (S) 3,498 4.9 -12.0°
Enters shadow 21:32:18 - 180° (S) 3,830 5.1 -12.1°
